Flag for Iceland Weather past 2 weeks in Reykjavik, Iceland

Now
50 °F

Scattered showers. Passing clouds.


Feels Like: 49 °F
Forecast: N/A
Wind: 3 mph from North

Location: Reykjavik Airport

Current Time: Sep 2, 2014 at 9:36:14 PM

Latest Report: Sep 2, 2014 at 9:00 PM


Visibility: N/A

Pressure: 29.53 "Hg

Humidity: 82%

Dew point: 45 °F

Location of ReykjavikLocation

Historic Weather in Reykjavik — Graph

°F

Reykjavik temperature yesterday

Maximum temperature yesterday: 54 °F (at 1:00 AM)
Minimum temperature yesterday: 50 °F (at 8:00 AM)
Average temperature yesterday: 51 °F

Past Weeks' High & Low Weather Summary

 TemperatureHumidityPressure
High63 °F (Aug 28, 3:00 PM)94% (Aug 19, 6:00 AM)30.15 "Hg (Aug 19, 6:00 AM)
Low43 °F (Aug 20, 5:00 AM)47% (Aug 20, 5:00 PM)28.82 "Hg (Aug 31, 8:00 PM)
Average52 °F77%29.74 "Hg
* Reported Aug 18 8:00 PM — Sep 2 8:00 PM, Reykjavik, Weather by CustomWeather, © 2014

Note: Actual official high and low records may vary slightly from our data, if they occured in-between our weather recording intervals... More about our weather records

Advertising

Reykjavik weather history for previous 24 hours

 ConditionsComfort  
Time TempWeatherWind HumidityBarometerVisibility
8:00 PM
Sep 2
50 °FScattered clouds.3 mph82%29.53 "HgN/A
7:00 PM50 °FSprinkles. Partly sunny.6 mph76%29.53 "HgN/A
6:00 PM52 °FPartly sunny.2 mph77%29.53 "HgN/A
5:00 PM52 °FScattered showers. Partly sunny.6 mph72%29.53 "HgN/A
4:00 PM52 °FBroken clouds.7 mph77%29.53 "HgN/A
3:00 PM50 °FScattered showers. Partly sunny.9 mph82%29.53 "HgN/A
2:00 PM52 °FSprinkles. Broken clouds.8 mph77%29.53 "HgN/A
1:00 PM52 °FPartly sunny.9 mph77%29.53 "HgN/A
12:00 PM54 °FScattered showers. Broken clouds.10 mph77%29.53 "HgN/A
11:00 AM52 °FBroken clouds.13 mph82%29.50 "HgN/A
10:00 AM52 °FScattered showers. Broken clouds.13 mph82%29.50 "HgN/A
9:00 AM52 °FScattered showers. Broken clouds.12 mph82%29.47 "HgN/A
8:00 AM50 °FScattered showers. Partly sunny.7 mph88%29.47 "HgN/A
7:00 AM50 °FBroken clouds.7 mph88%29.45 "HgN/A
6:00 AM50 °FPassing clouds.9 mph88%29.45 "HgN/A
5:00 AM50 °FPartly cloudy.9 mph88%29.42 "HgN/A
4:00 AM50 °FOvercast.10 mph88%29.42 "HgN/A
3:00 AM50 °FLight rain. Mostly cloudy.10 mph88%29.42 "HgN/A
2:00 AM50 °FLight rain. Partly cloudy.10 mph88%29.42 "HgN/A
1:00 AM50 °FLight rain. Mostly cloudy.9 mph88%29.39 "HgN/A
12:00 AM50 °FLight rain. Partly cloudy.13 mph88%29.39 "HgN/A
11:00 PM
Sep 1
50 °FPartly cloudy.14 mph88%29.39 "HgN/A
10:00 PM50 °FMostly cloudy.17 mph82%29.39 "HgN/A
9:00 PM50 °FMostly cloudy.16 mph88%29.36 "HgN/A
Weather by CustomWeather, © 2014

See weather overviewHow to use our weather pages